Location: ??????????
(31.2156°N, 29.9553°E)
Time: 05:06:52
(UTC+00:00)

Cosmos 2218 Rocket - Pass Details

Date: 03 March 2021
Orbit: 955 x 1007 km, 82.9° (Epoch: 14 April)

Event Time Altitude Azimuth Distance (km) Brightness Sun altitude
Rises 16:58:29 0° 162° (SSE) 3,711 6.9 -13.3°
Reaches altitude 10° 17:01:11 10° 154° (SSE) 2,769 6.1 -13.9°
Maximum altitude 17:06:58 38° 89° (E) 1,502 4.5 -15.1°
Drops below altitude 10° 17:12:46 10° 24° (NNE) 2,785 6.2 -16.4°
Sets 17:15:28 0° 17° (NNE) 3,736 6.9 -16.9°
